• în România
  • Lista ţărilor
  • Pe 7 zile
  • Temperatura apei
  • Hartă satelitară
  • Meteo pe hartă
  • Widget-uri
  • user-avatar
    Intrare

    Meteo pe oră la Ischgl

    Astăzi, 22 Septembrie, Vineri

    Timp Temperatura Precipitaţii Vânt Presiune Umiditate
    00:00 0°C° 0 mm 1 m/s 575 mmHg 67%
    01:00 0°C° 0 mm 1 m/s 575 mmHg 65%
    02:00 0°C° 0 mm 1 m/s 575 mmHg 65%
    03:00 0°C° 0 mm 1 m/s 575 mmHg 65%
    04:00 0°C° 0 mm 1 m/s 575 mmHg 65%
    05:00 0°C° 0 mm 1 m/s 575 mmHg 64%
    06:00 +1°C° 0 mm 1 m/s 575 mmHg 64%
    07:00 +1°C° 0 mm 2 m/s 576 mmHg 62%
    08:00 +4°C° 0 mm 1 m/s 577 mmHg 59%
    09:00 +6°C° 0 mm 1 m/s 578 mmHg 56%
    10:00 +8°C° 0 mm 1 m/s 579 mmHg 53%
    11:00 +9°C° 0 mm 1 m/s 579 mmHg 53%
    12:00 +10°C° 0 mm 1 m/s 579 mmHg 52%
    13:00 +10°C° 0 mm 2 m/s 580 mmHg 51%
    14:00 +9°C° 0 mm 2 m/s 579 mmHg 53%
    15:00 +9°C° 0 mm 2 m/s 579 mmHg 56%
    16:00 +8°C° 0 mm 2 m/s 579 mmHg 58%
    17:00 +7°C° 0 mm 1 m/s 578 mmHg 67%
    18:00 +4°C° 0 mm 1 m/s 577 mmHg 76%
    19:00 +2°C° 0 mm 1 m/s 576 mmHg 85%
    20:00 +2°C° 0 mm 1 m/s 576 mmHg 85%
    21:00 +1°C° 0 mm 1 m/s 576 mmHg 85%
    22:00 +1°C° 0 mm 1 m/s 576 mmHg 85%
    23:00 +1°C° 0 mm 1 m/s 576 mmHg 83%

    Mâine, 23 Septembrie, Sâmbătă

    Timp Temperatura Precipitaţii Vânt Presiune Umiditate
    00:00 +1°C° 0 mm 1 m/s 576 mmHg 81%
    01:00 +1°C° 0 mm 1 m/s 576 mmHg 80%
    02:00 +1°C° 0 mm 1 m/s 576 mmHg 79%
    03:00 +1°C° 0 mm 1 m/s 576 mmHg 77%
    04:00 +1°C° 0 mm 1 m/s 576 mmHg 76%
    05:00 +1°C° 0 mm 1 m/s 576 mmHg 75%
    06:00 +2°C° 0 mm 1 m/s 576 mmHg 75%
    07:00 +2°C° 0 mm 1 m/s 577 mmHg 74%
    08:00 +4°C° 0,1 mm 1 m/s 578 mmHg 69%
    09:00 +6°C° 0,1 mm 1 m/s 578 mmHg 65%
    10:00 +8°C° 0,1 mm 1 m/s 579 mmHg 60%
    11:00 +9°C° 0,1 mm 1 m/s 579 mmHg 60%
    12:00 +9°C° 0,1 mm 1 m/s 579 mmHg 60%
    13:00 +10°C° 0,1 mm 1 m/s 579 mmHg 60%
    14:00 +9°C° 0,5 mm 1 m/s 579 mmHg 65%
    15:00 +8°C° 0,5 mm 1 m/s 578 mmHg 70%
    16:00 +8°C° 0,5 mm 1 m/s 578 mmHg 75%
    17:00 +6°C° 0,4 mm 1 m/s 577 mmHg 81%
    18:00 +4°C° 0,4 mm 1 m/s 576 mmHg 87%
    19:00 +3°C° 0,4 mm 1 m/s 576 mmHg 93%
    20:00 +2°C° 0,1 mm 1 m/s 576 mmHg 94%
    21:00 +2°C° 0,1 mm 1 m/s 576 mmHg 94%
    22:00 +2°C° 0,1 mm 1 m/s 576 mmHg 95%
    23:00 +2°C° 0,1 mm 1 m/s 576 mmHg 94%

    Poimâine, 24 Septembrie, Duminică

    Timp Temperatura Precipitaţii Vânt Presiune Umiditate
    00:00 +2°C° 0,1 mm 1 m/s 576 mmHg 94%
    01:00 +2°C° 0,1 mm 1 m/s 576 mmHg 93%
    02:00 +2°C° 0,2 mm 1 m/s 575 mmHg 93%
    03:00 +2°C° 0,2 mm 1 m/s 575 mmHg 93%
    04:00 +2°C° 0,2 mm 1 m/s 575 mmHg 92%
    05:00 +2°C° 0,1 mm 1 m/s 575 mmHg 93%
    06:00 +2°C° 0,1 mm 1 m/s 575 mmHg 93%
    07:00 +2°C° 0,1 mm 1 m/s 575 mmHg 94%
    08:00 +3°C° 0,1 mm 1 m/s 576 mmHg 88%
    09:00 +3°C° 0,1 mm 2 m/s 577 mmHg 83%
    10:00 +5°C° 0,1 mm 2 m/s 577 mmHg 78%
    11:00 +5°C° 0,1 mm 2 m/s 577 mmHg 73%
    12:00 +6°C° 0,1 mm 2 m/s 578 mmHg 68%
    13:00 +7°C° 0,1 mm 2 m/s 578 mmHg 62%
    14:00 +6°C° 0,1 mm 2 m/s 578 mmHg 64%
    15:00 +6°C° 0,1 mm 2 m/s 577 mmHg 65%
    16:00 +6°C° 0,1 mm 2 m/s 577 mmHg 66%
    17:00 +4°C° 0,1 mm 2 m/s 576 mmHg 74%
    18:00 +4°C° 0,1 mm 1 m/s 576 mmHg 82%
    19:00 +2°C° 0,1 mm 1 m/s 575 mmHg 90%
    20:00 +2°C° 0 mm 1 m/s 575 mmHg 91%
    21:00 +1°C° 0 mm 1 m/s 575 mmHg 92%
    22:00 +1°C° 0 mm 1 m/s 575 mmHg 94%
    23:00 +1°C° 0 mm 1 m/s 575 mmHg 93%

    25 Septembrie, Luni

    Timp Temperatura Precipitaţii Vânt Presiune Umiditate
    00:00 0°C° 0 mm 1 m/s 575 mmHg 93%
    01:00 0°C° 0 mm 1 m/s 575 mmHg 92%
    02:00 0°C° 0 mm 1 m/s 575 mmHg 91%
    03:00 0°C° 0 mm 1 m/s 574 mmHg 90%
    04:00 -1°C° 0 mm 1 m/s 574 mmHg 90%
    05:00 0°C° 0 mm 1 m/s 574 mmHg 88%
    06:00 0°C° 0 mm 1 m/s 574 mmHg 86%
    07:00 0°C° 0 mm 1 m/s 575 mmHg 85%
    08:00 +2°C° 0 mm 1 m/s 576 mmHg 76%
    09:00 +5°C° 0 mm 1 m/s 577 mmHg 67%
    10:00 +6°C° 0 mm 0 m/s 578 mmHg 57%
    11:00 +8°C° 0 mm 1 m/s 578 mmHg 54%
    12:00 +9°C° 0 mm 1 m/s 578 mmHg 51%
    13:00 +10°C° 0 mm 1 m/s 578 mmHg 49%
    14:00 +9°C° 0,1 mm 1 m/s 578 mmHg 53%
    15:00 +8°C° 0,1 mm 1 m/s 578 mmHg 57%
    16:00 +7°C° 0,1 mm 2 m/s 577 mmHg 61%
    17:00 +6°C° 0,1 mm 1 m/s 577 mmHg 71%
    18:00 +4°C° 0,1 mm 1 m/s 576 mmHg 80%
    19:00 +3°C° 0,1 mm 1 m/s 576 mmHg 90%
    20:00 +2°C° 0,1 mm 1 m/s 576 mmHg 91%
    21:00 +2°C° 0,1 mm 1 m/s 576 mmHg 91%
    22:00 +2°C° 0,1 mm 1 m/s 576 mmHg 92%
    23:00 +2°C° 0,1 mm 1 m/s 576 mmHg 92%

    26 Septembrie, Marţi

    Timp Temperatura Precipitaţii Vânt Presiune Umiditate
    00:00 +2°C° 0,1 mm 1 m/s 576 mmHg 92%
    01:00 +2°C° 0,1 mm 1 m/s 576 mmHg 92%
    02:00 +2°C° 0,1 mm 1 m/s 576 mmHg 92%
    03:00 +2°C° 0,1 mm 1 m/s 576 mmHg 92%
    04:00 +2°C° 0,1 mm 1 m/s 576 mmHg 92%
    05:00 +2°C° 0 mm 1 m/s 576 mmHg 91%
    06:00 +2°C° 0 mm 1 m/s 576 mmHg 90%
    07:00 +1°C° 0 mm 0 m/s 576 mmHg 90%
    08:00 +4°C° 0 mm 1 m/s 577 mmHg 83%
    09:00 +6°C° 0 mm 1 m/s 578 mmHg 75%
    10:00 +7°C° 0 mm 1 m/s 579 mmHg 68%
    11:00 +8°C° 0,1 mm 1 m/s 579 mmHg 67%
    12:00 +8°C° 0,1 mm 1 m/s 579 mmHg 66%
    13:00 +8°C° 0,1 mm 1 m/s 579 mmHg 65%
    14:00 +8°C° 0,4 mm 1 m/s 578 mmHg 69%
    15:00 +7°C° 0,4 mm 1 m/s 578 mmHg 73%
    16:00 +7°C° 0,4 mm 1 m/s 578 mmHg 77%
    17:00 +6°C° 0,3 mm 1 m/s 578 mmHg 83%
    18:00 +5°C° 0,3 mm 1 m/s 577 mmHg 88%
    19:00 +2°C° 0,3 mm 0 m/s 577 mmHg 94%
    20:00 +2°C° 0,1 mm 0 m/s 577 mmHg 94%
    21:00 +2°C° 0,1 mm 0 m/s 577 mmHg 94%
    22:00 +2°C° 0,1 mm 0 m/s 577 mmHg 94%
    23:00 +1°C° 0 mm 0 m/s 577 mmHg 94%

    27 Septembrie, Miercuri

    Timp Temperatura Precipitaţii Vânt Presiune Umiditate
    00:00 +1°C° 0 mm 0 m/s 577 mmHg 93%
    01:00 +2°C° 0 mm 1 m/s 577 mmHg 93%
    02:00 +1°C° 0 mm 0 m/s 577 mmHg 93%
    03:00 0°C° 0 mm 0 m/s 576 mmHg 93%
    04:00 0°C° 0 mm 0 m/s 576 mmHg 93%
    05:00 0°C° 0 mm 0 m/s 577 mmHg 92%
    06:00 +1°C° 0 mm 0 m/s 577 mmHg 91%
    07:00 +1°C° 0 mm 0 m/s 577 mmHg 90%
    08:00 +4°C° 0 mm 1 m/s 578 mmHg 84%
    09:00 +6°C° 0 mm 1 m/s 579 mmHg 77%
    10:00 +8°C° 0 mm 1 m/s 580 mmHg 70%
    11:00 +8°C° 0,2 mm 1 m/s 580 mmHg 68%
    12:00 +9°C° 0,2 mm 1 m/s 580 mmHg 65%
    13:00 +9°C° 0,2 mm 1 m/s 581 mmHg 63%
    14:00 +9°C° 0,5 mm 1 m/s 580 mmHg 66%
    15:00 +9°C° 0,5 mm 1 m/s 580 mmHg 69%
    16:00 +8°C° 0,5 mm 1 m/s 580 mmHg 73%
    17:00 +6°C° 0,3 mm 1 m/s 579 mmHg 79%
    18:00 +5°C° 0,3 mm 1 m/s 579 mmHg 86%
    19:00 +3°C° 0,3 mm 1 m/s 578 mmHg 92%
    20:00 +3°C° 0 mm 1 m/s 578 mmHg 92%
    21:00 +3°C° 0 mm 1 m/s 578 mmHg 91%
    22:00 +2°C° 0 mm 1 m/s 578 mmHg 90%
    23:00 +2°C° 0 mm 1 m/s 578 mmHg 90%
    Arată mai mult